| time (UTC) | temp C | wind direction | speed KPH | gust KPH | rain 1hr cm | rain 24hr cm | rain mn cm | humidity % | barometer mb |
| 20260903212004 | 16 | 0 | 0.0 | 0.0 | 0.00 | 0.51 | 0.51 | 78 | 1019.5 |
| 20260903211004 | 16 | 0 | 0.0 | 0.0 | 0.00 | 0.51 | 0.51 | 77 | 1019.5 |
| 20260903210005 | 17 | 0 | 0.0 | 0.0 | 0.00 | 0.51 | 0.51 | 76 | 1019.6 |
| 20260903205004 | 17 | 230 | 0.0 | 3.2 | 0.00 | 0.51 | 0.51 | 76 | 1019.5 |
| 20260903204004 | 17 | 225 | 0.0 | 3.2 | 0.00 | 0.51 | 0.51 | 75 | 1019.7 |
| 20260903203005 | 17 | 225 | 0.0 | 3.2 | 0.00 | 0.51 | 0.51 | 74 | 1019.9 |
| 20260903202005 | 17 | 221 | 0.0 | 3.2 | 0.00 | 0.51 | 0.51 | 72 | 1019.6 |
| 20260903201004 | 17 | 225 | 0.0 | 3.2 | 0.00 | 0.51 | 0.51 | 72 | 1019.8 |
| 20260903200005 | 17 | 210 | 0.0 | 3.2 | 0.00 | 0.51 | 0.51 | 71 | 1019.7 |
| 20260903195004 | 17 | 240 | 0.0 | 4.8 | 0.00 | 0.51 | 0.51 | 72 | 1019.8 |
| 20260903194005 | 18 | 243 | 0.0 | 6.4 | 0.00 | 0.51 | 0.51 | 73 | 1020.0 |
| 20260903193005 | 17 | 241 | 1.6 | 4.8 | 0.00 | 0.51 | 0.51 | 72 | 1019.9 |
| 20260903192005 | 18 | 225 | 0.0 | 3.2 | 0.00 | 0.51 | 0.51 | 70 | 1020.0 |
| 20260903191004 | 18 | 225 | 3.2 | 3.2 | 0.00 | 0.51 | 0.51 | 67 | 1019.7 |
| 20260903190005 | 18 | 225 | 1.6 | 3.2 | 0.00 | 0.51 | 0.51 | 65 | 1019.8 |
| 20260903185005 | 19 | 0 | 0.0 | 0.0 | 0.00 | 0.51 | 0.51 | 64 | 1019.8 |
| 20260903184004 | 19 | 0 | 0.0 | 0.0 | 0.00 | 0.51 | 0.51 | 63 | 1019.9 |
| 20260903182005 | 20 | 225 | 0.0 | 1.6 | 0.00 | 0.51 | 0.51 | 61 | 1019.8 |
| 20260903181004 | 20 | 0 | 0.0 | 0.0 | 0.00 | 0.51 | 0.51 | 60 | 1019.8 |
| 20260903180004 | 20 | 0 | 0.0 | 0.0 | 0.00 | 0.51 | 0.51 | 59 | 1019.8 |
| 20260903175004 | 20 | 0 | 0.0 | 0.0 | 0.00 | 0.51 | 0.51 | 57 | 1019.8 |
| 20260903174005 | 20 | 0 | 0.0 | 0.0 | 0.00 | 0.51 | 0.51 | 56 | 1019.7 |
| 20260903173005 | 20 | 0 | 0.0 | 0.0 | 0.00 | 0.51 | 0.51 | 55 | 1019.8 |
| 20260903172005 | 21 | 0 | 0.0 | 0.0 | 0.00 | 0.51 | 0.51 | 52 | 1019.7 |
| 20260903171004 | 21 | 258 | 0.0 | 3.2 | 0.00 | 0.51 | 0.51 | 51 | 1019.6 |
| 20260903170005 | 21 | 225 | 1.6 | 4.8 | 0.00 | 0.51 | 0.51 | 50 | 1019.5 |
| 20260903164005 | 22 | 245 | 0.0 | 4.8 | 0.00 | 0.51 | 0.51 | 47 | 1019.5 |
| 20260903163004 | 23 | 252 | 0.0 | 4.8 | 0.00 | 0.51 | 0.51 | 43 | 1019.6 |
| 20260903162005 | 24 | 161 | 3.2 | 4.8 | 0.00 | 0.51 | 0.51 | 40 | 1019.3 |
| 20260903161005 | 25 | 220 | 3.2 | 9.7 | 0.00 | 0.51 | 0.51 | 35 | 1019.3 |
| 20260903160005 | 26 | 217 | 3.2 | 12.9 | 0.00 | 0.51 | 0.51 | 32 | 1019.5 |
| 20260903155004 | 26 | 239 | 3.2 | 8.0 | 0.00 | 0.51 | 0.51 | 33 | 1019.6 |
| 20260903154004 | 26 | 328 | 0.0 | 12.9 | 0.00 | 0.51 | 0.51 | 33 | 1019.5 |
| 20260903152004 | 27 | 261 | 3.2 | 17.7 | 0.00 | 0.51 | 0.51 | 30 | 1019.6 |
| 20260903150005 | 27 | 258 | 1.6 | 17.7 | 0.00 | 0.51 | 0.51 | 30 | 1020.0 |
| 20260903145005 | 28 | 203 | 6.4 | 9.7 | 0.00 | 0.51 | 0.51 | 30 | 1019.8 |
| 20260903144005 | 28 | 249 | 3.2 | 11.3 | 0.00 | 0.51 | 0.51 | 32 | 1020.0 |
| 20260903143004 | 28 | 236 | 3.2 | 12.9 | 0.00 | 0.51 | 0.51 | 31 | 1019.8 |
| 20260903142004 | 28 | 276 | 3.2 | 9.7 | 0.00 | 0.51 | 0.51 | 32 | 1019.8 |
| 20260903141004 | 28 | 1 | 3.2 | 8.0 | 0.00 | 0.51 | 0.51 | 32 | 1020.0 |
| 20260903140005 | 28 | 259 | 3.2 | 9.7 | 0.00 | 0.51 | 0.51 | 32 | 1020.1 |
| 20260903135005 | 27 | 235 | 3.2 | 14.5 | 0.00 | 0.51 | 0.51 | 31 | 1020.1 |
| 20260903134005 | 26 | 283 | 3.2 | 12.9 | 0.00 | 0.51 | 0.51 | 32 | 1020.2 |
| 20260903133005 | 26 | 194 | 1.6 | 6.4 | 0.00 | 0.51 | 0.51 | 37 | 1020.3 |
| 20260903132005 | 26 | 314 | 1.6 | 14.5 | 0.00 | 0.51 | 0.51 | 35 | 1020.6 |
| 20260903131004 | 26 | 259 | 6.4 | 20.9 | 0.00 | 0.53 | 0.51 | 35 | 1020.6 |
| 20260903130005 | 26 | 310 | 1.6 | 19.3 | 0.00 | 0.53 | 0.51 | 34 | 1020.6 |
| 20260903125004 | 27 | 323 | 12.9 | 17.7 | 0.00 | 0.53 | 0.51 | 33 | 1020.8 |
| 20260903123006 | 26 | 245 | 3.2 | 12.9 | 0.00 | 0.56 | 0.51 | 40 | 1020.8 |
| 20260903122005 | 26 | 307 | 3.2 | 17.7 | 0.00 | 0.56 | 0.51 | 42 | 1020.9 |
| 20260903121004 | 25 | 186 | 3.2 | 12.9 | 0.00 | 0.56 | 0.51 | 42 | 1020.8 |
| 20260903120005 | 25 | 239 | 3.2 | 19.3 | 0.00 | 0.56 | 0.51 | 44 | 1020.9 |
| 20260903115004 | 25 | 243 | 3.2 | 14.5 | 0.00 | 0.56 | 0.51 | 46 | 1021.2 |
| 20260903114004 | 25 | 264 | 1.6 | 14.5 | 0.00 | 0.56 | 0.51 | 45 | 1021.2 |
| 20260903113004 | 25 | 269 | 3.2 | 14.5 | 0.00 | 0.56 | 0.51 | 43 | 1021.4 |
| 20260903111004 | 24 | 230 | 3.2 | 12.9 | 0.00 | 0.56 | 0.51 | 50 | 1021.7 |
| 20260903105005 | 23 | 202 | 3.2 | 12.9 | 0.00 | 0.56 | 0.51 | 52 | 1021.9 |
| 20260903104005 | 23 | 210 | 3.2 | 12.9 | 0.00 | 0.56 | 0.51 | 55 | 1021.9 |
| 20260903103004 | 23 | 194 | 9.7 | 12.9 | 0.03 | 0.56 | 0.51 | 56 | 1021.9 |
| 20260903102005 | 22 | 209 | 3.2 | 14.5 | 0.03 | 0.56 | 0.51 | 56 | 1022.0 |
| 20260903101004 | 22 | 184 | 9.7 | 17.7 | 0.03 | 0.56 | 0.51 | 57 | 1022.0 |
| 20260903100004 | 22 | 223 | 6.4 | 12.9 | 0.03 | 0.56 | 0.51 | 60 | 1022.3 |
| 20260903094005 | 21 | 200 | 3.2 | 12.9 | 0.03 | 0.56 | 0.51 | 71 | 1022.2 |
| 20260903093004 | 21 | 218 | 1.6 | 12.9 | 0.00 | 0.53 | 0.48 | 80 | 1022.6 |
| 20260903092005 | 20 | 206 | 0.0 | 6.4 | 0.00 | 0.53 | 0.48 | 90 | 1022.5 |
| 20260903091005 | 20 | 181 | 0.0 | 6.4 | 0.00 | 0.53 | 0.48 | 92 | 1022.6 |
| 20260903090004 | 19 | 184 | 3.2 | 6.4 | 0.00 | 0.53 | 0.48 | 94 | 1022.5 |
| 20260903085004 | 20 | 181 | 4.8 | 6.4 | 0.00 | 0.53 | 0.48 | 94 | 1022.5 |
| 20260903084004 | 19 | 165 | 0.0 | 6.4 | 0.00 | 0.53 | 0.48 | 96 | 1022.6 |
| 20260903083004 | 18 | 184 | 3.2 | 6.4 | 0.00 | 0.53 | 0.48 | 96 | 1022.6 |
| 20260903082005 | 18 | 175 | 4.8 | 6.4 | 0.00 | 0.53 | 0.48 | 97 | 1022.5 |
| 20260903081005 | 17 | 213 | 3.2 | 6.4 | 0.00 | 0.53 | 0.48 | 96 | 1022.7 |
| 20260903080005 | 17 | 185 | 0.0 | 6.4 | 0.00 | 0.53 | 0.48 | 95 | 1022.5 |
| 20260903075004 | 16 | 154 | 3.2 | 8.0 | 0.00 | 0.53 | 0.48 | 96 | 1022.5 |
| 20260903074004 | 16 | 146 | 4.8 | 6.4 | 0.00 | 0.53 | 0.48 | 96 | 1022.5 |
| 20260903073004 | 16 | 156 | 0.0 | 6.4 | 0.00 | 0.53 | 0.48 | 96 | 1022.5 |
| 20260903071004 | 15 | 128 | 1.6 | 11.3 | 0.13 | 0.53 | 0.48 | 97 | 1022.7 |
| 20260903070004 | 15 | 130 | 4.8 | 12.9 | 0.13 | 0.53 | 0.48 | 97 | 1022.5 |
| 20260903065004 | 14 | 90 | 4.8 | 6.4 | 0.13 | 0.53 | 0.48 | 97 | 1022.6 |